Location: D?uga
(50.2667°N, 19.7833°E)
Time: 01:55:31
(UTC+00:00)

Cosmos 1953 - Pass Details

Date: 23 May 2024
Orbit: 510 x 531 km, 82.5° (Epoch: 18 June)

Event Time Altitude Azimuth Distance (km) Brightness Sun altitude
Rises 00:58:55 0° 338° (NNW) 2,687 6.3 -12.5°
Reaches altitude 10° 01:01:26 10° 322° (NW) 1,787 5.2 -12.3°
Maximum altitude 01:04:25 21° 272° (W) 1,219 3.8 -12.0°
Enters shadow 01:06:07 16° 238° (WSW) 1,419 3.9 -11.9°
